Miscellaneous Local Product
Issued by NWS North Platte, NE

Home | Current Version | Previous Version | Text Only | Print | Product List | Glossary On
Versions: 1 2 3 4 5 6 7 8 9 10 11 12 13 14 15 16 17 18 19 20 21 22 23 24 25 26 27 28 29 30 31 32 33 34 35 36 37 38 39 40 41 42 43 44 45 46 47 48 49 50
000
AXUS43 KLBF 191710
MISLBF


WESTERN AND NORTH CENTRAL NEBRASKA HOURLY WEATHER ROUNDUP
NATIONAL WEATHER SERVICE NORTH PLATTE NE
1100 AM CST MON FEB 19 2018

NOTE: "FAIR" INDICATES FEW OR NO CLOUDS BELOW 12,000 FEET WITH NO
SIGNIFICANT WEATHER AND/OR OBSTRUCTIONS TO VISIBILITY.

NOTE: STATIONS NOT REPORTING VARIABLES SUCH AS SKY/WEATHER OR
PRESSURE ARE PROVIDED BY RAWS AND APRS NETWORKS AND ARE NOT UNDER
NATIONAL WEATHER SERVICE QUALITY CONTROL.

...OBSERVATIONS IN AND NEAR THE EASTERN PANHANDLE OF NEBRASKA...

CITY           SKY/WX    TMP DP  RH WIND       PRES   REMARKS
PINE RIDGE     LGT SNOW   5  -2  72 N14       29.94S WCI -12
GORDON         LGT SNOW   4  -3  72 N13       29.89R WCI -13
CHADRON        LGT SNOW   4  -3  73 NE15      29.95S WCI -14
ALLIANCE       FLURRIES   4   0  83 N16       29.83S WCI -15
SIDNEY         LGT SNOW   8   4  83 NE14      29.77F FOG     WCI  -8
$$

...OBSERVATIONS IN NORTHERN NEBRASKA AND FAR SOUTHERN SOUTH DAKOTA...

CITY           SKY/WX    TMP DP  RH WIND       PRES   REMARKS
WINNER         LGT SNOW   9   3  77 N17       30.00R WCI  -9
VALENTINE      LGT SNOW   8   1  73 N18       29.95R WCI -11
AINSWORTH      LGT SNOW   8   5  86 N22       29.92S WCI -12
O`NEILL        LGT SNOW  11   8  87 N17       29.89F WCI  -6
THEDFORD       CLOUDY    10   5  80 N14G21    29.89S WCI  -7
BROKEN BOW     FLURRIES  13   7  77 N20       29.87R WCI  -5
ORD            LGT SNOW  13   8  81 N21G29    29.87R WCI  -5
ALBION         LGT SNOW  15  11  83 N14G22    29.86S WCI   1
$$

...OBSERVATIONS IN SOUTHWEST NEBRASKA AND FAR NORTHEAST COLORADO...

CITY           SKY/WX    TMP DP  RH WIND       PRES   REMARKS
WRAY           LGT SNOW  16  10  79 N13       29.81F WCI   2
HOLYOKE        LGT SNOW  16  10  79 N12       29.82R WCI   3
IMPERIAL       FLURRIES  13   8  81 N16       29.83S WCI  -3
OGALLALA       CLOUDY    13   8  80 N15       29.85F WCI  -3
NORTH PLATTE   CLOUDY    12   6  77 N16       29.87S WCI  -5
MCCOOK         LGT SNOW  16  11  80 N16       29.86S WCI   1
LEXINGTON      LGT SNOW  16  11  80 N14       29.86S WCI   1
GOTHENBURG       N/A     11   6  80 N13         N/A  WCI  -4
CALLAWAY         N/A     11   8  87 N20         N/A  WCI  -7
$$

...OBSERVATIONS IN CENTRAL LINCOLN COUNTY AREA...

CITY           SKY/WX    TMP DP  RH WIND       PRES   REMARKS
N.P. AIRPORT   CLOUDY    12   6  77 N16       29.87S WCI  -5
$$

...OBSERVATIONS ACROSS THE ROCKIES AND WESTERN HIGH PLAINS...

CITY           SKY/WX    TMP DP  RH WIND       PRES   REMARKS
RAPID CITY     SNOW       1  -4  79 N13       30.01R VSB 1/2 WCI -17
SCOTTSBLUFF    LGT SNOW   7   0  73 NE10      29.84S WCI  -8
CHEYENNE       CLOUDY     4   2  91 E10       29.60F FOG     WCI -11
DENVER         LGT SNOW  11   7  84 E12       29.64F WCI  -3
BERTHOUD PASS  FAIR      18   7  62 SW25G51   29.42F WCI  -1
COPPER MTN     LGT SNOW  23  18  80 S21G32    29.44S VSB 3/4 WCI   8
MONARCH PASS   SNOW      19  16  86 SW41G51   29.56F VSB 1/2 WCI  -2
ASPEN          CLOUDY    37  17  44 S7        29.38F WCI  32
LARAMIE        MOSUNNY    7   2  80 SE35G43   29.34F WCI -18
CASPER         SNOW      -3  -7  82 NE16      29.68F VSB 1/2 WCI -24
$$

...OBSERVATIONS ACROSS THE NORTHERN PLAINS...

CITY           SKY/WX    TMP DP  RH WIND       PRES   REMARKS
BISMARCK       PTSUNNY    4  -5  66 NE10      30.19F WCI -11
FARGO          FAIR       8   0  69 N17       30.18F WCI -10
PIERRE         LGT SNOW   7   2  80 N17       30.07F WCI -12
SIOUX FALLS    FLURRIES  16  11  80 N16       29.88R WCI   1
$$

...OBSERVATIONS ACROSS THE CENTRAL AND SOUTHERN PLAINS...

CITY           SKY/WX    TMP DP  RH WIND       PRES   REMARKS
OMAHA          CLOUDY    24  22  91 NW21G26   29.80R FOG     WCI   9
GRAND ISLAND   LGT SNOW  17  13  84 N21       29.85F FOG     WCI   0
KANSAS CITY    CLOUDY    36  34  92 NW13      29.75R WCI  27
WICHITA        FRZ RAIN  31  28  89 N16       29.82R WCI  20
DODGE CITY     CLOUDY    25  32 100 N16       29.82R WCI  12
OKLAHOMA CITY  CLOUDY    68  60  75 S22       29.75S
DALLAS         CLOUDY    75  64  68 S23G29    29.83S
AMARILLO       CLOUDY    63  41  44 SW15      29.74R
$$




USA.gov is the U.S. government's official web portal to all federal, state and local government web resources and services.